Miscellaneous Local Product
Issued by NWS North Platte, NE

Home | Current Version | Previous Version | Text Only | Print | Product List | Glossary On
Versions: 1 2 3 4 5 6 7 8 9 10 11 12 13 14 15 16 17 18 19 20 21 22 23 24 25 26 27 28 29 30 31 32 33 34 35 36 37 38 39 40 41 42 43 44 45 46 47 48 49 50
000
AXUS43 KLBF 282210
MISLBF


WESTERN AND NORTH CENTRAL NEBRASKA HOURLY WEATHER ROUNDUP
NATIONAL WEATHER SERVICE NORTH PLATTE NE
400 PM CST WED JAN 28 2015

***STATIONS NOT REPORTING VARIABLES SUCH AS SKY/WEATHER OR
PRESSURE ARE PROVIDED BY THE NEBRASKA DEPARTMENT OF
ROADS...RAWS...AND APRS NETWORKS...AND ARE NOT UNDER
NATIONAL WEATHER SERVICE QUALITY CONTROL***

...OBSERVATIONS IN AND NEAR THE EASTERN PANHANDLE OF NEBRASKA...

CITY           SKY/WX    TMP DP  RH WIND       PRES   REMARKS
PINE RIDGE     CLOUDY    49  35  58 W8        29.99R
CHADRON        CLOUDY    52  32  46 NW20G32   30.02R
ALLIANCE       PTSUNNY   53  30  41 N23G36    30.00R
SIDNEY         PTSUNNY   53  35  50 NW29G45   30.03R
WHITECLAY        N/A     45  35  66 W6          N/A
CRESCENT LAKE    N/A     55  29  37 NW24G33     N/A
LISCO            N/A     51  36  55 W20         N/A
LEWELLEN         N/A     60  23  24 S18         N/A
$$

...OBSERVATIONS IN NORTH CENTRAL NEBRASKA...

CITY           SKY/WX    TMP DP  RH WIND       PRES   REMARKS
VALENTINE      PTSUNNY   58  27  30 NW21G28   29.85R
THEDFORD       PTSUNNY   58  29  32 NW21G32   29.86R
AINSWORTH      MOSUNNY   57  27  31 NW26G37   29.83R
O`NEILL        SUNNY     61  36  39 NW21G29   29.74R
ORD            SUNNY     65  29  25 NW21G32   29.74R
BROKEN BOW     SUNNY     65  33  30 N22G36    29.79R
BROWNLEE         N/A     58  29  33 NW20        N/A
VALENTINE NWR    N/A     57  28  33 NW20G33     N/A
SPRINGVIEW       N/A     59  32  36 W14G23      N/A
HALSEY           N/A     61  29  30 NW14G29     N/A
BREWSTER         N/A     65  31  28 NW26        N/A
ROSE             N/A     65  35  33 SW24        N/A
NEWPORT          N/A     62  33  34 NW24        N/A
SARGENT          N/A     64  31  29 NW10G18     N/A
COMSTOCK         N/A     69  33  25 NW17        N/A
CHAMBERS         N/A     62  34  35 W7G18       N/A
EWING            N/A     61  39  44 NW8G16      N/A
$$

...OBSERVATIONS IN SOUTHWEST NEBRASKA AND FAR NORTHEAST COLORADO...

CITY           SKY/WX    TMP DP  RH WIND       PRES   REMARKS
WRAY           FAIR      62  31  31 NW30G41   29.98R
HOLYOKE        FAIR      61  32  33 NW30G39   29.98R
IMPERIAL       PTSUNNY   62  32  32 NW28G39   29.92R
OGALLALA       MOSUNNY   58  28  31 N28G35    29.94R
NORTH PLATTE   MOSUNNY   62  29  28 NW25G36   29.86R
MCCOOK         SUNNY     67  32  27 NW26G37   29.85R
LEXINGTON      SUNNY     67  32  27 NW26G38   29.80R
BRADY            N/A     64  33  31 S7G15       N/A
GOTHENBURG       N/A     63  29  27 NW18        N/A
CALLAWAY         N/A     62  34  35 N26         N/A
$$

...NORTH PLATTE AREA...

CITY           SKY/WX    TMP DP  RH WIND       PRES   REMARKS
AIRPORT        MOSUNNY   62  29  28 NW25G36   29.86R
$$

...SOME WEATHER OBSERVATIONS FROM AROUND THE REGION...

CITY           SKY/WX    TMP DP  RH WIND       PRES   REMARKS
DENVER         MOSUNNY   59  18  20 NW12G21   30.06R
LARAMIE        CLOUDY    42  25  50 W25G33    30.15R
CHEYENNE       PTSUNNY   48  27  44 NW35G48   30.09R
SCOTTSBLUFF    CLOUDY    47  38  71 NW21G29   30.08R
RAPID CITY     CLOUDY    53  26  35 NW28G36   29.95R
PIERRE         PTSUNNY   53  32  44 NW22G28   29.80R
WINNER         FAIR      61  30  31 NW29G37   29.79R
SIOUX FALLS    PTSUNNY   45  35  68 W5        29.68R
OMAHA          PTSUNNY   58  36  43 SW3       29.68R
GRAND ISLAND   SUNNY     68  33  27 NW18      29.72R
KANSAS CITY    PTSUNNY   72  38  29 S21G29    29.67F
WICHITA        MOSUNNY   71  33  24 W13       29.81R
HAYS           SUNNY     72  28  20 NW21G30   29.81S
LIBERAL        PTSUNNY   70  30  23 NW13G21   29.99R
GOODLAND       SUNNY     63  31  30 NW36G48   29.95R
$$



USA.gov is the U.S. government's official web portal to all federal, state and local government web resources and services.